[[{"header":{"parameterUnit":"m.s-1","parameterCategory":1,"la1":30.2991,"la2":30.254,"lo1":-89.0895,"lo2":-89.0444,"dy":0.0017,"dx":0.0017,"nx":28,"ny":28,"refTime":"2025-01-26T03:00:00:Z","depth":0,"parameterNumber":2,"parameterNumberName":"U-component_of_WINDS"},"data":[0,0,0,0,0,0,0,0,0,0,0,0,0,0,0,0,0,0,0,0,0,0,0,0,0,0,0,0,0,0,0,0,0,0,0,0,0,0,0,0,0,0,0,0,0,0,0,0,0,0,0,0,0,0,0,0,0,0,-1.2211,-1.2212,0,-1.2252,-1.2252,-1.2253,-1.2274,-1.2274,-1.2274,-1.2274,-1.2317,-1.2319,-1.232,0,0,0,0,0,0,0,0,0,0,0,0,0,-1.2152,-1.2153,-1.2211,-1.2212,-1.2212,-1.2252,-1.2252,-1.2253,-1.2274,-1.2274,-1.2274,-1.2274,-1.2317,-1.2318,-1.232,0,0,0,0,0,0,0,0,0,0,0,0,0,-1.2184,-1.2154,-1.2211,-1.2228,-1.2229,-1.2252,-1.2252,-1.2253,-1.2274,-1.2274,-1.2274,-1.2274,-1.2317,-1.2318,-1.232,-1.2329,0,0,-1.2325,-1.2326,0,0,0,0,0,0,0,0,-1.2182,-1.2186,-1.2225,-1.2226,-1.2229,-1.2258,-1.2247,-1.2279,-1.2274,-1.2257,-1.2274,-1.2274,-1.2298,-1.2301,-1.2309,-1.2331,-1.2333,-1.2325,-1.2326,-1.2327,-1.2327,0,0,0,0,0,0,0,-1.218,-1.2184,-1.2227,-1.2225,-1.2228,-1.2233,-1.2238,-1.2253,-1.2277,-1.2259,-1.226,-1.2265,-1.2299,-1.2307,-1.231,-1.2334,-1.2325,-1.2327,-1.2328,-1.2328,-1.2365,-1.2365,0,0,0,0,0,0,-1.2175,-1.2182,-1.2226,-1.2228,-1.2205,-1.2234,-1.2239,-1.2249,-1.2277,-1.2281,-1.2265,-1.2266,-1.2304,-1.2308,-1.2311,-1.2323,-1.2327,-1.2328,-1.2329,-1.2365,-1.2365,-1.2365,0,0,0,0,0,0,-1.2174,-1.2179,-1.2224,-1.2206,-1.2212,-1.2235,-1.2245,-1.2249,-1.2257,-1.2281,-1.2286,-1.2269,-1.2304,-1.2309,-1.2324,-1.2325,-1.2329,-1.2331,-1.2365,-1.2365,-1.2365,-1.2347,0,0,0,0,0,0,-1.2172,-1.2178,-1.2182,-1.2206,-1.2213,-1.2236,-1.2245,-1.225,-1.226,-1.2262,-1.2286,-1.229,-1.2305,-1.2322,-1.2326,-1.2327,-1.2332,-1.2365,-1.2365,-1.2365,-1.2348,-1.2347,-1.2346,0,0,0,0,0,-1.217,-1.2176,-1.2182,-1.2187,-1.2218,-1.2236,-1.2241,-1.2257,-1.226,-1.2264,-1.2279,-1.2289,-1.2324,-1.2323,-1.2328,-1.233,-1.2365,-1.2365,-1.2365,-1.2348,-1.2347,-1.2346,0,0,0,0,0,0,-1.2152,-1.2179,-1.2186,-1.2201,-1.2216,-1.224,-1.2246,-1.2255,-1.227,-1.2271,-1.2291,-1.2296,-1.2309,-1.2321,-1.2319,-1.234,-1.2346,-1.2346,-1.2331,-1.233,-1.2329,-1.2326,-1.2333,0,0,0,0,0,-1.215,-1.2162,-1.2185,-1.2196,-1.2203,-1.2223,-1.2231,-1.2242,-1.2259,-1.2266,-1.2282,-1.2299,-1.2313,-1.2322,-1.2337,-1.235,-1.2355,-1.2353,-1.2352,-1.2351,-1.2352,-1.2358,-1.2357,-1.2364,-1.2364,-1.2364,0,0,-1.2146,-1.2162,-1.2169,-1.2193,-1.2206,-1.2218,-1.2228,-1.2241,-1.225,-1.2268,-1.2283,-1.2295,-1.2315,-1.2328,-1.2335,-1.2339,-1.2351,-1.2351,-1.235,-1.2351,-1.2358,-1.2357,-1.2357,-1.2364,-1.2364,-1.2364,0,0,-1.2144,-1.2158,-1.2167,-1.218,-1.2199,-1.2212,-1.2214,-1.2237,-1.2245,-1.226,-1.2274,-1.2285,-1.231,-1.2323,-1.2333,-1.2334,-1.2343,-1.2338,-1.2332,-1.2338,-1.2337,-1.2337,-1.2337,-1.2336,-1.2338,-1.2338,-1.2338,0,-1.2137,-1.2155,-1.2171,-1.2183,-1.2192,-1.2208,-1.2218,-1.2229,-1.2253,-1.2259,-1.2262,-1.2293,-1.2307,-1.2323,-1.2323,-1.2331,-1.2334,-1.2335,-1.2336,-1.2336,-1.2336,-1.2336,-1.2335,-1.2338,-1.2338,-1.2338,-1.2338,0,-1.2144,-1.2157,-1.2162,-1.2183,-1.2193,-1.2204,-1.2221,-1.223,-1.2239,-1.2252,-1.2267,-1.2284,-1.2302,-1.2307,-1.2317,-1.2324,-1.2325,-1.2332,-1.2338,-1.2334,-1.2334,-1.2334,-1.2336,-1.2337,-1.2337,-1.2337,0,0,-1.2134,-1.2162,-1.2164,-1.2173,-1.2195,-1.2205,-1.2215,-1.2232,-1.2239,-1.2254,-1.2263,-1.2283,-1.2289,-1.23,-1.2312,-1.2317,-1.2315,-1.2323,-1.2324,-1.232,-1.2323,-1.2318,-1.2317,-1.2322,-1.2322,-1.2322,-1.2321,0,-1.2135,-1.2154,-1.2168,-1.2183,-1.2194,-1.2208,-1.2217,-1.2231,-1.2243,-1.2254,-1.2267,-1.228,-1.2288,-1.2294,-1.23,-1.2314,-1.2316,-1.2315,-1.2331,-1.2331,-1.2325,-1.2318,-1.2312,-1.2311,-1.2322,-1.2322,-1.2322,0,-1.2139,-1.2152,-1.2167,-1.2186,-1.2191,-1.2199,-1.2215,-1.2226,-1.2242,-1.225,-1.2261,-1.2272,-1.2284,-1.2289,-1.2305,-1.2303,-1.2311,-1.2319,-1.2319,-1.2321,-1.2326,-1.2319,-1.2311,-1.2311,-1.2322,-1.2322,-1.2322,0,-1.2129,-1.2151,-1.2162,-1.217,-1.2192,-1.2197,-1.2207,-1.2223,-1.2232,-1.2245,-1.2251,-1.2266,-1.2275,-1.2286,-1.2301,-1.2303,-1.2315,-1.2322,-1.2322,-1.2322,-1.2324,-1.2324,-1.2317,-1.2329,-1.2329,-1.2329,-1.2329,0,-1.2129,-1.2137,-1.2158,-1.2165,-1.2174,-1.219,-1.2199,-1.221,-1.2224,-1.2233,-1.2246,-1.2255,-1.2274,-1.2285,-1.2297,-1.2308,-1.2312,-1.2319,-1.2322,-1.2317,-1.2316,-1.2322,-1.2322,-1.2329,-1.2329,-1.2329,-1.2329,0,-1.2119,-1.2134,-1.2147,-1.2166,-1.2171,-1.2177,-1.2194,-1.2201,-1.2213,-1.2224,-1.2228,-1.2246,-1.226,-1.2275,-1.2294,-1.2302,-1.2312,-1.2317,-1.2306,-1.2308,-1.2307,-1.2306,-1.2303,-1.2303,-1.2316,-1.2316,-1.2316,0,-1.2118,-1.2124,-1.2144,-1.2151,-1.216,-1.217,-1.2179,-1.2194,-1.2202,-1.222,-1.2225,-1.2239,-1.2251,-1.2271,-1.2286,-1.2301,-1.2306,-1.2303,-1.2308,-1.2303,-1.2305,-1.2304,-1.2304,-1.2302,-1.2302,-1.2302,-1.2302,0,-1.2114,-1.212,-1.2131,-1.2144,-1.2153,-1.2165,-1.2177,-1.2182,-1.2199,-1.2208,-1.2221,-1.223,-1.2248,-1.2262,-1.2277,-1.2288,-1.2297,-1.23,-1.2301,-1.2296,-1.2289,-1.2292,-1.2302,-1.23,-1.23,-1.23,-1.23,-1.23,-1.2108,-1.2114,-1.2128,-1.214,-1.215,-1.216,-1.2167,-1.2179,-1.219,-1.2205,-1.2214,-1.2226,-1.2241,-1.2263,-1.2273,-1.2283,-1.2286,-1.2288,-1.2288,-1.2288,-1.2286,-1.2288,-1.2286,-1.2286,-1.2286,-1.2286,-1.2286,0,-1.2104,-1.2113,-1.2124,-1.2139,-1.2148,-1.2155,-1.2168,-1.2175,-1.2186,-1.2198,-1.2209,-1.2224,-1.2236,-1.2252,-1.2266,-1.2271,-1.2275,-1.2274,-1.2273,-1.2275,-1.2282,-1.228,-1.2269,-1.2269,-1.2269,-1.2269,-1.2269,-1.2269,-1.2103,-1.2113,-1.212,-1.2135,-1.2144,-1.2156,-1.2162,-1.2172,-1.2182,-1.2197,-1.2207,-1.2216,-1.223,-1.2245,-1.2256,-1.2261,-1.2265,-1.2262,-1.2267,-1.2274,-1.2275,-1.2276,-1.2274,-1.2263,-1.2263,-1.2259,-1.2259,-1.2259]},{"header":{"parameterUnit":"m.s-1","parameterCategory":1,"la1":30.2991,"la2":30.254,"lo1":-89.0895,"lo2":-89.0444,"dy":0.0017,"dx":0.0017,"nx":28,"ny":28,"refTime":"2025-01-26T03:00:00:Z","depth":0,"parameterNumber":3,"parameterNumberName":"V-component_of_WINDS"},"data":[0,0,0,0,0,0,0,0,0,0,0,0,0,0,0,0,0,0,0,0,0,0,0,0,0,0,0,0,0,0,0,0,0,0,0,0,0,0,0,0,0,0,0,0,0,0,0,0,0,0,0,0,0,0,0,0,0,0,2.5741,2.5742,0,2.5881,2.5883,2.5884,2.5896,2.5894,2.5893,2.5891,2.6042,2.6047,2.6053,0,0,0,0,0,0,0,0,0,0,0,0,0,2.549,2.5495,2.5741,2.5743,2.5744,2.5881,2.5883,2.5885,2.5896,2.5894,2.5892,2.589,2.604,2.6047,2.6053,0,0,0,0,0,0,0,0,0,0,0,0,0,2.5612,2.5496,2.5741,2.5766,2.577,2.588,2.5883,2.5885,2.5896,2.5894,2.5892,2.5889,2.6038,2.6046,2.6054,2.6151,0,0,2.6079,2.6083,0,0,0,0,0,0,0,0,2.5605,2.5621,2.5761,2.5765,2.5769,2.5868,2.585,2.5974,2.5897,2.5849,2.5891,2.5888,2.5987,2.5999,2.603,2.6158,2.6164,2.608,2.6085,2.6088,2.6091,0,0,0,0,0,0,0,2.5597,2.5615,2.5797,2.5763,2.5768,2.5773,2.5788,2.5873,2.5929,2.5853,2.5854,2.587,2.5988,2.6023,2.6034,2.6167,2.608,2.6087,2.6092,2.6095,2.6381,2.6384,0,0,0,0,0,0,2.5582,2.5608,2.5792,2.5801,2.5679,2.5779,2.5796,2.5839,2.5928,2.5939,2.5872,2.587,2.601,2.6025,2.6039,2.6159,2.6088,2.6096,2.6101,2.6378,2.6382,2.6384,0,0,0,0,0,0,2.5577,2.5598,2.5786,2.5705,2.5729,2.5786,2.5834,2.5843,2.5877,2.5942,2.5953,2.5896,2.6008,2.6028,2.6123,2.6165,2.61,2.6107,2.6375,2.6379,2.6383,2.6399,0,0,0,0,0,0,2.557,2.5596,2.5632,2.5705,2.5733,2.5865,2.5837,2.5847,2.589,2.5889,2.5968,2.5979,2.6008,2.611,2.6131,2.6175,2.6113,2.6372,2.6377,2.6382,2.6395,2.6403,2.641,0,0,0,0,0,2.5561,2.5633,2.5634,2.5656,2.5779,2.5868,2.5884,2.5914,2.5893,2.5931,2.5973,2.5976,2.6156,2.612,2.6143,2.619,2.6369,2.6376,2.6381,2.6392,2.6401,2.641,0,0,0,0,0,0,2.5566,2.5643,2.5645,2.5742,2.5798,2.5869,2.5918,2.5923,2.5988,2.5985,2.6022,2.604,2.6133,2.6171,2.6129,2.6288,2.6261,2.6272,2.6261,2.627,2.6278,2.6268,2.612,0,0,0,0,0,2.5578,2.5641,2.5706,2.5786,2.5813,2.586,2.59,2.5918,2.5979,2.6003,2.6052,2.6113,2.6183,2.6228,2.6297,2.64,2.6418,2.6443,2.6451,2.6456,2.6466,2.6525,2.6537,2.6404,2.6404,2.6404,0,0,2.5605,2.5654,2.5693,2.5788,2.5833,2.5901,2.5881,2.5952,2.6003,2.6015,2.6107,2.6145,2.6215,2.6314,2.636,2.6349,2.6507,2.6464,2.6468,2.6475,2.6532,2.6545,2.6556,2.6408,2.6408,2.6407,0,0,2.5688,2.5731,2.5802,2.5847,2.5915,2.5946,2.5963,2.6033,2.6058,2.615,2.616,2.6222,2.6342,2.6391,2.6432,2.6532,2.6538,2.6553,2.6593,2.665,2.666,2.667,2.6707,2.672,2.6562,2.6562,2.6562,0,2.5714,2.5812,2.5839,2.591,2.5953,2.5963,2.6037,2.608,2.6168,2.6198,2.6182,2.6332,2.638,2.6492,2.6516,2.6548,2.657,2.6546,2.6656,2.6666,2.6675,2.6711,2.6725,2.6564,2.6564,2.6564,2.6563,0,2.5841,2.591,2.596,2.6041,2.6089,2.6161,2.6201,2.6246,2.626,2.6293,2.6387,2.6444,2.6524,2.6552,2.6567,2.6666,2.6656,2.6648,2.6621,2.6689,2.6723,2.6737,2.6566,2.6566,2.6565,2.6565,0,0,2.5934,2.6027,2.6045,2.6082,2.6157,2.6212,2.6285,2.6361,2.64,2.6459,2.6523,2.6623,2.6616,2.6662,2.6683,2.6732,2.6809,2.6718,2.672,2.6734,2.6923,2.693,2.6945,2.6812,2.6815,2.6817,2.6918,0,2.6027,2.6155,2.618,2.6293,2.6357,2.6367,2.6431,2.6485,2.6517,2.6579,2.6615,2.6686,2.667,2.6698,2.6747,2.6789,2.6848,2.6782,2.6875,2.6877,2.6858,2.6963,2.6972,2.7064,2.6931,2.6933,2.6935,0,2.6153,2.6213,2.633,2.6396,2.6424,2.6481,2.6552,2.6609,2.6671,2.6692,2.6742,2.6757,2.6835,2.6803,2.6913,2.6867,2.6906,2.6933,2.6937,2.6949,2.6912,2.698,2.7094,2.7108,2.6956,2.6955,2.6953,0,2.6211,2.6321,2.6406,2.6437,2.6515,2.6555,2.659,2.6649,2.6692,2.6755,2.6784,2.6856,2.6896,2.6953,2.6987,2.696,2.7095,2.7065,2.7116,2.7115,2.7146,2.7144,2.727,2.7168,2.7168,2.7167,2.7167,0,2.6313,2.6385,2.6432,2.6485,2.6566,2.6595,2.6676,2.6711,2.6763,2.6824,2.6838,2.6895,2.6936,2.7,2.7027,2.7115,2.7133,2.7153,2.716,2.7153,2.7151,2.7181,2.7176,2.7171,2.717,2.717,2.7169,0,2.6393,2.6427,2.652,2.6585,2.6603,2.6661,2.6718,2.677,2.6801,2.6879,2.6899,2.6949,2.7025,2.7063,2.7159,2.7177,2.7276,2.7278,2.7255,2.7258,2.7308,2.7303,2.7459,2.7482,2.7362,2.7364,2.7364,0,2.6457,2.6512,2.6582,2.6623,2.6658,2.6723,2.6767,2.6797,2.6843,2.6917,2.6961,2.7036,2.7098,2.7219,2.7266,2.7339,2.7344,2.7393,2.7355,2.7347,2.7347,2.7344,2.7351,2.7401,2.7402,2.7403,2.7404,0,2.6568,2.6581,2.6642,2.671,2.6761,2.6816,2.6871,2.6904,2.6943,2.6994,2.707,2.7118,2.7213,2.7289,2.7365,2.7404,2.7412,2.7415,2.7431,2.7426,2.7411,2.7421,2.7276,2.7412,2.7411,2.7411,2.741,2.741,2.6643,2.6693,2.6749,2.6818,2.6861,2.6911,2.6963,2.7,2.7063,2.7142,2.7156,2.7237,2.7298,2.74,2.744,2.7506,2.7496,2.7518,2.7525,2.753,2.7534,2.7398,2.7519,2.7519,2.7519,2.7519,2.7519,0,2.6756,2.6792,2.6854,2.6929,2.6982,2.6981,2.7041,2.7087,2.7157,2.7212,2.7272,2.7359,2.7432,2.7483,2.7558,2.7601,2.7606,2.7619,2.7618,2.7627,2.7537,2.7517,2.7614,2.7614,2.7614,2.7614,2.7614,2.7614,2.6821,2.6906,2.6926,2.7032,2.7069,2.7146,2.7181,2.7228,2.7271,2.7367,2.7427,2.7459,2.7513,2.7591,2.7658,2.7672,2.77,2.7713,2.7727,2.7643,2.7633,2.7624,2.7605,2.7718,2.7719,2.7812,2.7812,2.7813]}]]